Temperature
20 19 18 17 16 16 15 15 14 14 14 13 13 13 13 13 13 13 13 14 14 14 14 14 14 15 15 15 15 16 16 16 16 16 16 17 17 18 18 18 18 19 19
20 19 18 17 16 16 15 14 14 14 13 13 13 13 13 13 13 13 13 13 13 13 14 14 14 14 14 15 15 15 15 16 16 16 16 16 17 17 18 18 18 19 18
20 19 18 17 16 15 15 14 14 14 13 13 13 13 13 13 13 13 13 13 13 13 13 14 14 14 14 14 15 15 15 15 15 16 16 16 16 17 17 18 18 18 19
19 18 18 17 16 15 14 14 14 13 13 12 12 12 12 12 12 12 13 13 13 13 13 13 13 14 14 14 14 14 15 15 15 15 15 16 16 16 17 17 18 18 18
19 18 17 16 16 15 14 14 13 13 13 12 12 12 12 12 12 12 12 13 13 13 13 13 13 13 13 14 14 14 14 15 15 15 15 15 15 16 16 17 17 17 18
19 18 17 16 16 15 14 14 13 13 13 12 12 12 12 12 12 12 12 12 12 12 13 13 13 13 13 13 14 14 14 14 15 15 15 15 15 16 16 16 17 17 17
19 18 17 16 16 15 14 14 13 13 13 12 12 12 12 12 12 12 12 12 12 12 12 12 13 13 13 13 13 14 14 14 14 14 15 15 15 15 16 16 16 16 17
19 18 17 16 16 15 14 14 13 13 13 13 12 12 12 12 12 12 12 12 12 12 12 12 12 12 13 13 13 13 14 14 14 14 14 14 15 15 15 15 15 15 16
19 18 17 16 16 15 15 14 14 13 13 13 12 12 12 12 12 12 11 11 12 12 12 12 12 12 13 13 13 13 13 14 14 14 14 14 14 15 15 15 15 15 15
19 18 17 16 16 15 15 14 14 13 13 13 12 12 12 12 12 12 11 11 12 12 12 12 12 12 12 13 13 13 13 13 14 14 14 14 14 14 14 15 15 15 15
19 18 17 17 16 15 15 15 14 14 13 13 12 12 12 12 12 12 11 11 11 12 12 12 12 12 12 12 12 13 13 13 13 13 13 14 14 14 14 14 14 15 15
19 18 17 17 16 16 15 15 14 14 13 13 12 12 12 12 12 12 11 11 11 11 12 12 12 12 12 12 12 12 13 13 13 13 13 13 13 14 14 14 14 14 15
19 18 18 17 16 16 15 15 14 14 13 13 12 12 12 12 12 12 11 11 11 11 11 12 12 12 12 12 12 12 12 13 13 13 13 13 13 13 14 14 14 14 14
19 19 18 17 17 16 16 15 15 14 14 13 13 12 12 12 12 12 11 11 11 11 11 11 11 11 11 12 12 12 12 12 13 13 13 13 13 13 13 13 14 14 14
20 19 18 18 17 17 16 16 15 15 14 14 13 13 12 12 12 11 11 11 11 11 11 11 11 11 11 12 12 12 12 12 12 12 12 13 13 13 13 13 13 13 14
20 19 19 18 18 17 17 16 16 15 14 14 13 13 12 12 12 12 11 11 11 11 11 11 11 11 11 11 12 12 12 12 12 12 12 12 13 13 13 13 13 13 13
20 20 19 19 18 18 17 17 16 15 15 14 14 13 13 12 12 12 11 11 11 11 11 11 11 11 11 12 12 12 12 12 12 12 12 12 12 12 12 13 13 13 13
20 20 19 19 18 18 17 17 16 16 15 15 14 13 13 12 12 12 12 11 11 11 11 11 11 11 11 11 12 12 12 12 12 12 12 12 12 12 12 12 12 13 13
20 19 19 19 18 18 18 17 17 16 16 15 14 14 13 13 12 12 12 12 12 11 11 11 11 11 11 11 12 12 12 12 12 12 12 12 12 12 12 12 12 12 12
19 19 19 18 18 18 17 17 17 17 16 15 15 14 14 13 13 12 12 12 12 12 12 11 11 12 12 12 12 12 12 12 12 12 11 12 12 12 12 12 12 12 12
19 18 18 18 18 18 17 17 17 17 16 15 15 14 14 14 13 13 13 12 12 12 12 12 12 12 12 12 12 12 12 12 11 11 11 11 12 12 12 12 12 12 12
18 18 18 18 17 17 17 16 16 16 16 15 15 14 14 14 14 13 13 13 13 13 12 12 12 12 12 12 12 12 12 12 11 11 11 11 12 12 12 12 12 12 12
18 18 18 17 17 17 17 16 16 16 15 15 15 15 14 14 14 14 14 13 13 13 13 13 12 12 12 12 12 12 12 12 11 11 11 12 12 12 12 12 12 12 12
18 18 18 17 17 17 17 16 16 16 15 15 15 15 15 15 15 14 14 14 14 13 13 13 13 13 12 12 12 12 12 12 12 12 12 12 12 12 12 12 12 12 12
18 18 17 17 17 17 17 16 16 16 15 15 15 15 15 15 15 15 14 14 14 14 14 14 13 13 13 13 12 12 12 12 12 12 12 12 12 12 11 11 11 11 11
17 17 17 16 16 16 16 16 16 16 15 15 15 15 15 15 15 15 15 14 14 14 14 14 14 14 14 13 13 13 12 12 12 12 12 12 12 11 11 11 11 11 11
Wind_Speed
4 7 5 4 5 6 7 7 7 7 5 5 5 5 5 5 5 4 5 6 6 5 4 4 4 2 3 4 5 4 4 4 3 2 3 4 5 5 4 5 4 5 7
4 5 5 4 5 6 6 7 7 7 6 4 4 5 4 4 4 4 4 6 6 5 5 4 3 3 2 4 5 4 3 4 4 3 2 3 3 4 6 4 5 5 4
4 5 5 5 5 5 6 7 6 7 7 7 4 6 5 4 4 5 4 5 5 5 4 4 4 3 3 3 4 5 5 4 4 4 4 3 4 3 3 5 5 5 4
3 3 4 5 5 6 6 7 7 7 7 7 6 7 6 5 6 5 4 5 4 4 4 4 4 4 3 3 4 4 3 4 4 4 5 4 2 2 2 3 4 5 5
3 2 3 4 5 5 5 5 5 6 6 7 6 5 5 5 5 6 6 5 5 4 3 3 3 4 3 3 4 3 3 4 5 4 4 4 3 3 2 3 3 3 4
2 2 3 4 4 4 3 3 3 4 5 5 6 5 6 6 7 7 6 5 4 4 5 4 4 4 4 4 4 4 4 4 5 5 4 4 3 4 4 4 3 3 3
2 3 3 3 3 3 3 3 4 4 4 6 6 6 6 6 7 7 6 6 4 4 5 5 4 4 4 4 4 4 4 4 5 5 5 5 5 3 3 4 3 3 2
3 2 2 2 1 2 2 3 3 4 4 5 6 6 7 5 5 6 6 6 5 5 6 6 5 4 4 4 4 3 4 3 3 5 4 4 5 5 4 4 4 3 3
3 3 2 1 1 2 2 2 3 4 4 5 5 5 6 6 6 6 6 5 6 6 7 6 5 4 4 4 4 3 3 3 3 3 4 3 4 4 4 4 5 5 5
3 3 3 1 0 1 0 1 2 3 4 5 5 5 5 5 6 5 6 6 7 7 7 7 6 5 5 4 3 3 3 3 3 3 3 4 4 4 4 5 5 5 5
3 3 2 1 1 0 1 0 1 2 3 4 5 5 5 5 5 5 5 6 6 7 7 7 6 6 6 5 4 4 3 3 3 3 3 4 4 3 4 4 4 5 5
3 3 3 2 1 1 1 1 2 3 3 3 4 4 4 5 6 6 6 7 7 7 7 7 7 7 7 6 6 5 4 3 3 3 3 4 3 3 3 4 5 5 6
4 3 3 2 1 1 1 1 0 1 1 1 2 4 5 5 6 6 6 7 7 7 7 7 8 7 7 7 7 7 6 4 3 3 3 3 3 3 3 4 4 5 5
4 4 4 3 3 3 2 2 1 1 1 1 1 3 4 5 5 5 5 6 7 7 7 7 7 7 7 8 9 9 7 5 4 3 3 3 3 3 3 3 3 4 4
3 4 5 4 3 4 4 3 3 2 1 1 1 2 4 5 5 5 5 6 7 7 6 7 7 7 6 8 10 9 8 7 5 4 4 3 3 3 2 2 2 1 2
3 3 4 4 3 4 3 3 3 2 1 1 1 2 1 3 4 5 5 5 5 5 5 5 6 6 6 10 13 12 8 7 5 4 3 3 3 5 4 2 2 1 2
2 2 3 3 3 2 2 3 2 1 1 0 1 1 1 2 3 5 5 5 5 5 5 5 5 5 6 10 13 15 9 7 5 5 4 4 4 5 4 4 2 1 2
2 3 3 3 3 3 4 4 4 3 1 1 0 1 1 1 2 3 4 4 4 5 5 5 4 4 5 8 11 15 9 6 4 4 4 4 4 6 6 4 2 1 1
2 2 1 1 2 2 3 2 3 4 3 2 1 1 1 1 2 3 3 3 3 4 4 4 4 4 3 6 9 12 7 5 5 5 5 4 4 8 9 5 3 2 1
3 2 1 1 0 2 3 1 3 2 3 3 1 1 0 1 2 3 3 3 4 4 4 4 4 3 2 2 6 9 5 5 5 4 3 6 6 8 8 5 4 3 2
3 1 0 0 1 1 1 3 3 1 2 3 1 2 2 3 4 3 4 5 4 4 5 6 5 3 2 1 1 4 3 5 6 4 3 3 6 8 8 6 3 3 3
4 2 1 1 1 0 1 3 2 1 2 2 2 4 5 5 4 4 5 5 5 6 6 5 4 3 2 3 2 2 3 4 4 4 3 3 6 7 7 5 4 5 4
4 3 2 1 2 3 3 3 3 1 2 3 5 6 6 6 6 6 6 5 5 5 5 4 4 3 2 3 5 4 5 5 3 3 5 6 6 6 5 4 5 4 2
2 2 2 2 3 2 3 3 3 3 4 5 6 6 6 6 5 5 5 4 4 4 4 4 4 4 3 1 2 1 3 4 4 4 5 7 7 5 5 4 4 3 2
2 2 1 1 2 2 0 0 1 3 5 6 6 6 6 5 4 4 5 6 5 5 5 5 4 4 3 1 1 0 1 2 3 5 4 4 4 4 4 3 3 2 2
3 3 3 3 3 4 5 4 3 3 5 6 6 4 3 3 4 5 5 9 10 11 12 12 9 6 7 7 6 5 4 4 4 4 4 5 5 4 4 4 3 3 3
Wind_Direction
61 78 58 39 21 24 15 3 6 4 12 7 342 334 332 327 326 328 339 331 322 320 306 298 296 270 244 242 237 236 229 224 212 221 254 258 256 256 244 250 250 222 190
37 68 51 39 31 29 18 3 9 6 13 3 347 327 326 315 319 333 336 340 332 325 313 310 305 290 268 257 245 233 220 226 203 188 192 231 253 261 248 242 251 244 204
24 34 34 28 29 34 21 4 11 8 13 3 2 344 335 331 342 341 339 326 323 321 318 316 309 295 272 257 253 239 223 223 218 202 188 190 208 221 246 234 240 252 238
50 41 39 30 22 34 26 7 13 11 12 1 1 347 346 345 335 332 325 327 327 330 339 317 308 303 295 276 264 252 233 223 226 227 227 220 177 178 230 257 236 243 242
76 50 58 48 32 33 26 8 8 10 8 352 342 339 354 341 328 330 335 339 336 327 326 320 319 306 298 287 279 280 253 231 224 220 220 224 222 209 193 228 242 252 249
99 97 74 71 49 38 22 356 3 4 354 343 342 354 357 341 336 342 343 339 336 332 342 337 332 319 311 306 295 281 265 250 239 231 221 208 203 202 195 212 220 228 253
95 85 75 63 48 24 15 352 359 353 357 347 346 354 357 348 345 349 342 341 338 338 338 337 325 317 306 302 297 284 270 260 248 236 227 223 224 214 202 202 213 219 234
111 87 77 75 56 11 19 1 351 345 351 348 352 358 359 357 352 348 344 343 341 335 335 329 320 319 316 313 304 289 277 267 260 254 242 228 228 223 214 204 196 211 221
136 140 111 64 37 27 19 359 351 349 355 357 351 2 2 355 348 345 348 347 339 336 341 328 329 327 320 313 313 300 291 288 271 266 263 244 233 223 220 214 201 194 211
155 142 130 124 51 28 353 1 350 353 7 357 355 3 358 348 338 340 352 344 336 337 334 338 341 339 337 334 333 320 303 293 284 267 263 255 236 227 220 218 212 205 204
152 140 134 144 151 297 301 306 359 35 33 4 358 354 348 340 336 349 352 346 342 344 343 345 349 354 352 347 338 331 329 320 307 298 289 282 259 238 227 221 214 210 205
149 155 156 172 182 220 319 346 26 44 51 18 350 338 339 348 353 357 1 353 348 347 346 353 1 4 2 352 349 347 344 323 312 307 299 290 285 259 236 225 217 210 207
171 178 163 186 195 198 237 310 28 64 70 50 338 339 352 360 356 359 0 348 350 351 350 2 4 6 6 2 0 353 341 328 314 308 303 301 305 279 254 235 223 214 211
182 184 172 203 197 203 204 208 169 153 169 134 347 356 353 359 357 0 352 347 353 351 356 5 6 7 7 8 2 352 342 337 334 336 338 335 332 311 295 267 247 221 208
196 192 186 204 198 201 199 187 169 179 165 106 45 28 0 360 358 349 350 359 354 351 359 3 5 3 5 14 1 347 344 343 348 359 8 13 15 9 343 314 312 282 219
207 201 200 192 206 216 188 162 156 164 181 182 125 90 2 356 348 341 351 353 337 339 357 357 3 0 7 1 1 357 341 336 342 351 353 353 15 17 5 330 289 271 232
178 189 220 191 197 194 117 109 105 124 206 164 123 113 35 0 344 344 347 337 336 355 350 347 353 356 360 359 357 352 338 330 344 354 351 1 19 14 359 338 309 279 267
154 174 203 176 192 180 146 147 168 191 180 116 262 175 167 290 323 326 322 322 341 343 333 332 338 340 359 4 357 349 336 332 348 359 0 11 23 14 0 338 337 347 329
104 126 175 182 193 141 122 185 196 179 166 160 260 247 177 197 295 305 305 314 321 314 313 319 323 324 348 9 3 355 328 334 349 2 13 22 27 10 3 355 355 7 1
82 78 112 283 260 121 115 275 272 211 161 158 217 275 171 216 267 289 300 298 289 286 294 297 296 304 318 15 7 359 335 342 344 348 27 47 27 6 4 357 358 6 360
105 92 269 329 5 46 126 249 279 341 101 108 64 300 273 248 236 245 271 284 286 290 285 278 262 246 247 183 7 359 350 338 331 337 2 29 14 2 356 353 357 343 333
136 159 227 191 158 325 293 280 288 15 82 133 222 255 259 261 258 233 246 261 271 279 279 277 278 246 201 183 204 283 310 318 319 330 352 4 352 345 341 344 336 332 335
147 161 194 221 228 207 198 263 288 262 221 214 228 240 248 242 235 236 244 252 256 261 277 285 286 278 221 191 208 242 282 303 308 313 321 313 313 322 314 303 307 314 303
118 140 182 211 246 238 180 207 253 257 253 244 236 236 243 245 238 224 227 240 253 265 278 289 293 291 277 231 176 238 276 294 303 306 300 295 289 286 288 287 281 265 259
79 94 73 14 337 325 322 147 294 295 284 275 258 247 243 237 239 240 234 236 237 229 234 248 264 285 288 226 171 178 341 353 342 325 302 281 270 260 255 252 243 233 222
56 69 63 46 0 354 14 21 4 335 316 310 309 303 295 270 244 245 256 241 235 239 233 232 235 250 245 218 217 226 246 274 305 315 288 283 272 263 259 256 250 238 228
Height
1533 1533 1533 1533 1532 1530 1528 1526 1524 1521 1518 1515 1512 1510 1508 1507 1505 1504 1503 1501 1500 1500 1499 1499 1500 1500 1501 1501 1502 1504 1505 1507 1509 1511 1512 1514 1515 1517 1519 1521 1523 1525 1527
1532 1532 1532 1532 1531 1529 1527 1526 1523 1520 1517 1514 1512 1509 1508 1506 1504 1503 1501 1499 1498 1497 1497 1497 1497 1497 1497 1498 1499 1500 1501 1503 1505 1507 1508 1509 1512 1512 1514 1517 1519 1521 1523
1531 1531 1531 1531 1530 1528 1527 1525 1523 1520 1517 1514 1511 1508 1506 1505 1503 1501 1499 1498 1496 1496 1495 1494 1494 1494 1495 1495 1496 1497 1498 1499 1501 1503 1505 1506 1506 1508 1510 1512 1515 1517 1519
1530 1531 1530 1530 1529 1528 1526 1524 1522 1519 1516 1513 1511 1508 1506 1503 1502 1500 1498 1496 1495 1494 1493 1492 1492 1492 1492 1492 1493 1494 1495 1496 1497 1499 1501 1503 1504 1505 1506 1508 1510 1512 1515
1529 1529 1529 1529 1528 1527 1525 1523 1521 1519 1516 1513 1510 1508 1505 1503 1501 1499 1497 1495 1494 1493 1492 1491 1490 1490 1490 1490 1491 1491 1491 1492 1493 1495 1497 1499 1500 1502 1503 1504 1506 1508 1510
1528 1528 1528 1528 1527 1526 1524 1522 1520 1518 1515 1513 1510 1508 1505 1502 1500 1498 1496 1494 1493 1492 1491 1489 1489 1488 1488 1488 1488 1488 1488 1489 1490 1491 1493 1494 1496 1497 1499 1500 1502 1503 1505
1527 1527 1527 1527 1526 1525 1523 1522 1520 1518 1515 1513 1510 1508 1505 1502 1500 1498 1495 1493 1492 1491 1489 1488 1487 1486 1486 1485 1485 1485 1485 1486 1486 1487 1488 1490 1492 1494 1495 1497 1498 1500 1501
1525 1526 1526 1526 1525 1524 1523 1521 1519 1517 1515 1513 1510 1508 1506 1503 1500 1498 1496 1493 1492 1490 1488 1487 1486 1485 1484 1484 1483 1483 1483 1483 1483 1484 1485 1486 1488 1489 1491 1493 1495 1496 1497
1524 1525 1525 1525 1524 1523 1522 1521 1519 1517 1515 1513 1511 1508 1505 1503 1500 1498 1496 1493 1491 1489 1488 1486 1485 1484 1483 1482 1481 1481 1480 1480 1480 1481 1481 1482 1483 1485 1487 1489 1490 1493 1493
1523 1523 1524 1524 1523 1523 1521 1520 1518 1517 1515 1513 1511 1508 1506 1503 1501 1499 1496 1493 1491 1489 1487 1486 1484 1483 1482 1481 1480 1479 1478 1478 1478 1478 1478 1479 1480 1481 1482 1484 1485 1487 1489
1521 1522 1522 1522 1522 1522 1521 1520 1518 1516 1514 1512 1510 1508 1506 1504 1502 1499 1497 1494 1492 1490 1488 1486 1484 1482 1481 1479 1478 1477 1477 1476 1476 1476 1476 1476 1476 1477 1478 1479 1481 1483 1484
1520 1520 1521 1521 1521 1521 1520 1519 1518 1516 1514 1512 1510 1509 1506 1504 1502 1500 1497 1495 1492 1490 1488 1486 1484 1482 1480 1479 1477 1476 1475 1475 1474 1474 1473 1473 1473 1473 1474 1475 1476 1478 1480
1518 1519 1520 1520 1520 1520 1519 1518 1517 1515 1514 1512 1510 1509 1507 1505 1502 1500 1498 1495 1493 1491 1488 1486 1484 1482 1480 1478 1477 1475 1474 1473 1473 1472 1471 1471 1471 1471 1471 1472 1473 1474 1476
1517 1517 1518 1518 1518 1518 1518 1517 1516 1515 1514 1512 1511 1509 1507 1505 1503 1500 1498 1496 1493 1491 1489 1487 1484 1482 1480 1478 1476 1475 1473 1473 1472 1471 1470 1469 1468 1468 1468 1469 1470 1471 1472
1515 1516 1516 1517 1517 1517 1516 1516 1515 1514 1513 1512 1511 1509 1507 1505 1503 1501 1498 1496 1494 1492 1489 1487 1485 1483 1481 1479 1477 1475 1473 1472 1471 1470 1469 1468 1467 1467 1467 1467 1467 1468 1469
1513 1514 1515 1515 1516 1516 1515 1515 1514 1514 1513 1512 1510 1509 1507 1505 1503 1501 1499 1496 1494 1492 1490 1488 1485 1483 1481 1480 1478 1476 1474 1472 1471 1470 1469 1468 1467 1466 1465 1465 1465 1466 1466
1511 1512 1513 1514 1514 1514 1514 1514 1514 1513 1513 1512 1510 1508 1507 1505 1503 1501 1499 1496 1494 1492 1490 1488 1486 1484 1482 1480 1478 1476 1474 1473 1471 1470 1469 1468 1467 1466 1465 1464 1464 1464 1464
1510 1511 1512 1512 1513 1513 1513 1513 1512 1512 1512 1511 1510 1508 1506 1504 1502 1500 1498 1496 1494 1492 1490 1488 1486 1484 1482 1480 1478 1476 1475 1473 1472 1470 1469 1468 1467 1465 1464 1464 1463 1463 1463
1508 1509 1510 1511 1512 1512 1512 1512 1512 1511 1511 1510 1509 1508 1506 1504 1502 1500 1498 1497 1494 1492 1490 1488 1486 1484 1482 1480 1479 1477 1475 1473 1472 1471 1469 1468 1466 1465 1464 1463 1462 1462 1462
1507 1508 1509 1510 1511 1511 1511 1511 1511 1511 1510 1508 1508 1507 1505 1503 1502 1500 1498 1496 1494 1492 1490 1488 1486 1484 1482 1480 1479 1477 1475 1473 1472 1470 1469 1468 1466 1465 1464 1463 1462 1461 1461
1506 1507 1508 1509 1509 1510 1510 1510 1510 1510 1508 1507 1506 1505 1504 1502 1501 1499 1497 1495 1494 1492 1490 1488 1486 1484 1482 1480 1479 1477 1475 1473 1471 1470 1469 1467 1466 1465 1464 1463 1462 1461 1461
1505 1506 1507 1507 1508 1508 1508 1508 1508 1507 1506 1505 1504 1503 1502 1501 1500 1498 1496 1494 1493 1491 1489 1488 1486 1484 1482 1480 1478 1477 1475 1473 1471 1470 1468 1467 1466 1464 1463 1462 1462 1461 1461
1504 1505 1505 1506 1506 1506 1506 1506 1506 1505 1504 1503 1502 1501 1500 1498 1497 1496 1494 1493 1491 1490 1488 1487 1485 1484 1482 1480 1478 1476 1474 1472 1471 1469 1468 1467 1465 1464 1463 1462 1462 1461 1461
1503 1503 1504 1504 1504 1505 1504 1504 1503 1503 1502 1501 1500 1498 1497 1496 1495 1494 1492 1491 1489 1488 1487 1485 1483 1482 1480 1478 1476 1474 1473 1471 1469 1468 1467 1466 1465 1463 1462 1462 1461 1461 1460
1501 1502 1502 1502 1502 1503 1502 1501 1500 1500 1499 1498 1497 1496 1495 1493 1492 1491 1490 1488 1487 1486 1484 1482 1481 1479 1477 1476 1475 1473 1471 1469 1468 1466 1465 1464 1463 1462 1461 1461 1460 1460 1459
1500 1500 1500 1500 1500 1500 1499 1498 1497 1496 1496 1495 1494 1493 1492 1491 1489 1487 1486 1484 1483 1482 1481 1479 1478 1476 1475 1473 1472 1470 1469 1467 1466 1464 1463 1462 1461 1460 1460 1459 1459 1458 1458